TimeCDT,TemperatureF,Dew PointF,Humidity,Sea Level PressureIn,VisibilityMPH,Wind Direction,Wind SpeedMPH,Gust SpeedMPH,PrecipitationIn,Events,Conditions,WindDirDegrees,DateUTC
12:15 AM,54.1,34.9,48,30.15,10.0,Calm,Calm,-,N/A,,Clear,0,2013-10-23 05:15:00
12:35 AM,50.7,33.4,52,30.15,10.0,Calm,Calm,-,N/A,,Clear,0,2013-10-23 05:35:00
12:55 AM,50.0,35.2,57,30.14,10.0,Calm,Calm,-,N/A,,Clear,0,2013-10-23 05:55:00
1:15 AM,48.2,35.4,61,30.14,10.0,WSW,3.5,-,N/A,,Clear,250,2013-10-23 06:15:00
1:35 AM,43.7,33.1,66,30.14,10.0,WNW,5.8,-,N/A,,Clear,300,2013-10-23 06:35:00
1:55 AM,42.8,33.8,70,30.15,10.0,WSW,4.6,-,N/A,,Clear,250,2013-10-23 06:55:00
2:15 AM,43.0,33.4,69,30.14,10.0,WSW,4.6,-,N/A,,Clear,250,2013-10-23 07:15:00
2:35 AM,42.3,33.4,71,30.14,10.0,West,4.6,-,N/A,,Clear,260,2013-10-23 07:35:00
2:55 AM,40.3,33.4,77,30.14,10.0,Calm,Calm,-,N/A,,Clear,0,2013-10-23 07:55:00
3:15 AM,41.2,33.6,74,30.14,10.0,WSW,6.9,-,N/A,,Clear,250,2013-10-23 08:15:00
3:35 AM,40.8,33.1,74,30.13,10.0,West,6.9,-,N/A,,Clear,270,2013-10-23 08:35:00
3:55 AM,42.3,32.2,67,30.13,10.0,West,8.1,-,N/A,,Clear,260,2013-10-23 08:55:00
4:15 AM,41.0,32.4,71,30.13,10.0,West,5.8,-,N/A,,Clear,270,2013-10-23 09:15:00
4:35 AM,41.2,32.2,70,30.13,10.0,West,8.1,-,N/A,,Clear,270,2013-10-23 09:35:00
4:55 AM,41.0,32.2,71,30.13,10.0,West,6.9,-,N/A,,Clear,280,2013-10-23 09:55:00
5:15 AM,39.7,32.0,74,30.13,10.0,West,5.8,-,N/A,,Clear,280,2013-10-23 10:15:00
5:35 AM,39.9,32.0,73,30.14,10.0,West,6.9,-,N/A,,Clear,260,2013-10-23 10:35:00
5:55 AM,39.7,32.2,74,30.14,10.0,West,5.8,-,N/A,,Clear,270,2013-10-23 10:55:00
6:15 AM,39.6,32.5,76,30.15,10.0,West,5.8,-,N/A,,Clear,280,2013-10-23 11:15:00
6:35 AM,39.6,32.7,76,30.15,10.0,West,8.1,-,N/A,,Clear,270,2013-10-23 11:35:00
6:55 AM,38.3,31.6,77,30.15,10.0,WNW,4.6,-,N/A,,Clear,290,2013-10-23 11:55:00
7:15 AM,37.6,31.3,78,30.15,10.0,West,4.6,-,N/A,,Clear,270,2013-10-23 12:15:00
7:35 AM,39.7,32.0,74,30.16,10.0,West,5.8,-,N/A,,Clear,270,2013-10-23 12:35:00
7:55 AM,39.7,32.0,74,30.16,10.0,West,5.8,-,N/A,,Clear,280,2013-10-23 12:55:00
8:15 AM,39.7,32.0,74,30.17,10.0,WSW,4.6,-,N/A,,Clear,250,2013-10-23 13:15:00
8:35 AM,39.7,32.0,74,30.17,10.0,WSW,3.5,-,N/A,,Clear,240,2013-10-23 13:35:00
8:55 AM,42.4,33.3,70,30.17,10.0,Calm,Calm,-,N/A,,Clear,0,2013-10-23 13:55:00
9:15 AM,47.3,35.6,64,30.18,10.0,West,3.5,-,N/A,,Clear,260,2013-10-23 14:15:00
9:35 AM,50.0,34.3,55,30.18,10.0,West,6.9,-,N/A,,Clear,270,2013-10-23 14:35:00
9:55 AM,54.9,36.1,49,30.18,10.0,West,8.1,-,N/A,,Clear,260,2013-10-23 14:55:00
10:15 AM,57.4,34.7,43,30.18,10.0,West,9.2,-,N/A,,Clear,260,2013-10-23 15:15:00
10:35 AM,59.9,35.1,39,30.18,10.0,WSW,10.4,-,N/A,,Clear,250,2013-10-23 15:35:00
10:55 AM,62.6,34.7,35,30.18,10.0,WSW,12.7,-,N/A,,Clear,240,2013-10-23 15:55:00
11:15 AM,64.2,35.1,34,30.17,10.0,WSW,12.7,17.3,N/A,,Clear,240,2013-10-23 16:15:00
11:35 AM,67.5,35.6,31,30.17,10.0,WSW,10.4,-,N/A,,Clear,250,2013-10-23 16:35:00
11:55 AM,70.0,33.4,26,30.17,10.0,WSW,12.7,-,N/A,,Clear,250,2013-10-23 16:55:00
12:15 PM,71.2,30.6,22,30.17,10.0,WSW,16.1,-,N/A,,Clear,250,2013-10-23 17:15:00
12:35 PM,75.2,30.7,20,30.16,10.0,SW,13.8,19.6,N/A,,Clear,230,2013-10-23 17:35:00
12:55 PM,75.2,30.4,19,30.15,10.0,SW,16.1,23.0,N/A,,Clear,220,2013-10-23 17:55:00
1:15 PM,75.2,29.7,19,30.15,10.0,WSW,17.3,20.7,N/A,,Clear,240,2013-10-23 18:15:00
1:35 PM,75.2,27.7,17,30.13,10.0,SW,18.4,23.0,N/A,,Clear,230,2013-10-23 18:35:00
1:55 PM,75.2,26.1,16,30.12,10.0,WSW,15.0,21.9,N/A,,Clear,240,2013-10-23 18:55:00
2:15 PM,75.6,25.3,16,30.11,10.0,SSW,18.4,21.9,N/A,,Clear,210,2013-10-23 19:15:00
2:35 PM,77.4,25.3,15,30.10,10.0,SW,17.3,23.0,N/A,,Clear,230,2013-10-23 19:35:00
2:55 PM,77.5,25.5,15,30.09,10.0,SW,13.8,19.6,N/A,,Clear,230,2013-10-23 19:55:00
3:15 PM,76.8,24.4,14,30.08,10.0,SW,13.8,23.0,N/A,,Clear,220,2013-10-23 20:15:00
3:35 PM,77.5,23.5,13,30.08,10.0,SW,13.8,19.6,N/A,,Clear,220,2013-10-23 20:35:00
3:55 PM,77.5,23.4,13,30.08,10.0,SSW,12.7,21.9,N/A,,Clear,210,2013-10-23 20:55:00
4:15 PM,77.5,23.5,13,30.08,10.0,WSW,15.0,-,N/A,,Clear,240,2013-10-23 21:15:00
4:35 PM,77.5,23.0,13,30.07,10.0,SW,11.5,21.9,N/A,,Clear,230,2013-10-23 21:35:00
4:55 PM,77.5,22.8,13,30.07,10.0,SW,13.8,-,N/A,,Clear,230,2013-10-23 21:55:00
5:15 PM,77.5,22.8,13,30.07,10.0,SW,10.4,-,N/A,,Clear,220,2013-10-23 22:15:00
5:35 PM,77.5,22.8,13,30.07,10.0,SW,11.5,-,N/A,,Clear,220,2013-10-23 22:35:00
5:55 PM,75.2,21.2,13,30.07,10.0,SSW,11.5,-,N/A,,Clear,210,2013-10-23 22:55:00
6:15 PM,75.2,22.3,14,30.07,10.0,SSW,10.4,-,N/A,,Clear,210,2013-10-23 23:15:00
6:35 PM,75.2,25.3,16,30.07,10.0,SSW,8.1,-,N/A,,Clear,200,2013-10-23 23:35:00
6:55 PM,70.0,25.9,19,30.07,10.0,SSW,5.8,-,N/A,,Clear,200,2013-10-23 23:55:00
7:15 PM,65.5,26.2,23,30.07,10.0,South,6.9,-,N/A,,Clear,190,2013-10-24 00:15:00
7:35 PM,61.3,26.2,26,30.08,10.0,South,6.9,-,N/A,,Clear,190,2013-10-24 00:35:00
7:55 PM,61.2,26.6,27,30.08,10.0,South,6.9,-,N/A,,Clear,190,2013-10-24 00:55:00
8:15 PM,60.1,26.6,28,30.09,10.0,SSW,6.9,-,N/A,,Clear,200,2013-10-24 01:15:00
8:35 PM,59.9,28.2,30,30.10,10.0,South,6.9,-,N/A,,Clear,190,2013-10-24 01:35:00
8:55 PM,57.4,27.5,32,30.10,10.0,SSW,8.1,-,N/A,,Clear,200,2013-10-24 01:55:00
9:15 PM,55.0,28.0,35,30.10,10.0,South,6.9,-,N/A,,Clear,190,2013-10-24 02:15:00
9:35 PM,55.0,27.9,35,30.11,10.0,SSW,8.1,-,N/A,,Clear,200,2013-10-24 02:35:00
9:55 PM,55.4,28.2,35,30.11,10.0,SSW,6.9,-,N/A,,Clear,200,2013-10-24 02:55:00
10:15 PM,55.0,28.4,36,30.11,10.0,SSW,6.9,-,N/A,,Clear,200,2013-10-24 03:15:00
10:35 PM,54.9,30.0,39,30.12,10.0,SSW,5.8,-,N/A,,Clear,210,2013-10-24 03:35:00
10:55 PM,52.3,30.4,43,30.12,10.0,SSW,5.8,-,N/A,,Clear,210,2013-10-24 03:55:00
11:15 PM,52.3,30.9,44,30.13,10.0,SSW,6.9,-,N/A,,Clear,210,2013-10-24 04:15:00
11:35 PM,52.3,31.1,44,30.13,10.0,SSW,5.8,-,N/A,,Clear,210,2013-10-24 04:35:00
11:55 PM,54.9,33.4,44,30.13,10.0,SSW,8.1,-,N/A,,Clear,210,2013-10-24 04:55:00